Hourly Weather Roundup
Issued by NWS Central Illinois

Home | Current Version | Previous Version | Text Only | Print | Product List | Glossary On
Versions: 1 2 3 4 5 6 7 8 9 10 11 12 13 14 15 16 17 18 19 20 21 22 23 24 25 26 27 28 29 30 31 32 33 34 35 36 37 38 39 40 41 42 43 44 45 46 47 48 49 50
000
NZUS43 KILX 050010
HWRILX

AREA WEATHER ROUNDUP
NATIONAL WEATHER SERVICE, LINCOLN IL
600 PM CST SUN DEC 04 2016


CITY           SKY/WX    TMP DP  RH WIND       PRES   REMARKS
BLOOMINGTON    CLOUDY    32  31  96 W5        29.91S FOG     WCI  27
6HR MIN TEMP:  32; 6HR MAX TEMP:  34; 6HR PCP:  0.23;

CHAMPAIGN      FOG       33  31  92 W9        29.91R VSB 3/4 WCI  25
6HR MIN TEMP:  33; 6HR MAX TEMP:  34; 6HR PCP:  0.29;

DANVILLE       CLOUDY    32  32  99 SW6       29.86R FOG     WCI  27
6HR MIN TEMP:  32; 6HR MAX TEMP:  36; 6HR PCP:  0.30;

DECATUR        CLOUDY    33  33 100 W8        29.93S WCI  26
EFFINGHAM      CLOUDY    38  37  97 W10       29.96R WCI  31
6HR MIN TEMP:  38; 6HR MAX TEMP:  40; 6HR PCP:  0.14;

FLORA          CLOUDY    41  36  84 NW14G20   29.97R WCI  33
6HR MIN TEMP:  41; 6HR MAX TEMP:  42;

GALESBURG      CLOUDY    32  32 100 SW3       29.93R FOG
6HR MIN TEMP:  32; 6HR MAX TEMP:  33; 6HR PCP:  0.10;

JACKSONVILLE   CLOUDY    33  32  95 W7        29.96R WCI  27
6HR MIN TEMP:  32; 6HR MAX TEMP:  33; 6HR PCP:  0.27;

LACON          DRIZZLE   31  31 100 CALM      29.92R
6HR MIN TEMP:  31; 6HR MAX TEMP:  32; 6HR PCP:  0.15;

LAWRENCEVILLE  CLOUDY    41  39  93 W12G22    29.94R WCI  34
6HR MIN TEMP:  41; 6HR MAX TEMP:  43; 6HR PCP:  0.16;

LITCHFIELD     CLOUDY    35  33  94 W15G21    29.96R WCI  25
6HR MIN TEMP:  33; 6HR MAX TEMP:  36; 6HR PCP:  0.08;

$$


CITY           SKY/WX    TMP DP  RH WIND       PRES   REMARKS
LINCOLN        CLOUDY    33  33 100 CALM      29.94R FOG
6HR MIN TEMP:  33; 6HR MAX TEMP:  34;

MACOMB         CLOUDY    33  33 100 W8        29.96S FOG     WCI  26
6HR MIN TEMP:  32; 6HR MAX TEMP:  33; 6HR PCP:  0.14;

MATTOON        CLOUDY    36  33  89 W13       29.91R WCI  27
6HR MIN TEMP:  36; 6HR MAX TEMP:  37; 6HR PCP:  0.08;

MT CARMEL AP   CLOUDY    41  38  87 W13       29.94R WCI  34
6HR MIN TEMP:  41; 6HR MAX TEMP:  43; 6HR PCP:  0.08;

OLNEY-NOBLE AP CLOUDY    37  37 100 W13       29.95R WCI  29
PARIS          CLOUDY    37  36  96 W13G18    29.91R WCI  28
6HR MIN TEMP:  36; 6HR MAX TEMP:  37; 6HR PCP:  0.19;

PEORIA         CLOUDY    33  33 100 W3        29.93S FOG
6HR MIN TEMP:  32; 6HR MAX TEMP:  34; 6HR PCP:  0.18;

PONTIAC        MIX PCPN  32  32 100 CALM      29.91F
6HR MIN TEMP:  32; 6HR MAX TEMP:  33;

RANTOUL        CLOUDY    34  34  99 W9        29.90R FOG     WCI  27
6HR MIN TEMP:  34; 6HR MAX TEMP:  34; 6HR PCP:  0.20;

SPRINGFIELD    CLOUDY    34  32  92 W6        29.95R FOG     WCI  29
6HR MIN TEMP:  34; 6HR MAX TEMP:  35; 6HR PCP:  0.17;

TAYLORVILLE    CLOUDY    33  32  99 W8        29.95R FOG     WCI  25
6HR MIN TEMP:  32; 6HR MAX TEMP:  34; 6HR PCP:  0.12;

$$

...REGIONAL REPORTS...


CITY           SKY/WX    TMP DP  RH WIND       PRES   REMARKS
CHICAGO O`HARE LGT SNOW  32  31  96 CALM      29.89F VSB 1
KANKAKEE       LGT RAIN  32  32  99 CALM      29.90S
MOLINE         CLOUDY    34  31  88 SW6       29.91S FOG     WCI  29
MOUNT STERLING CLOUDY    33  32  96 W6        29.94R WCI  28
MOUNT VERNON   NOT AVBL
PITTSFIELD     CLOUDY    35  33  94 W5        29.98R WCI  31
QUINCY         CLOUDY    35  32  88 W13       29.95S WCI  26
ROCKFORD       LGT SNOW  30  29  96 S5        29.92S VSB 3/4 WCI  25
$$


CITY           SKY/WX    TMP DP  RH WIND       PRES   REMARKS
BURLINGTON     CLOUDY    32  32 100 SW6       29.94R FOG     WCI  26
CEDAR RAPIDS   CLOUDY    33  33 100 W5        29.89S WCI  29
DES MOINES     CLEAR     36  32  85 SW9       29.91R WCI  29
KIRKSVILLE     CLOUDY    35  34  96 W6        29.97R WCI  30
OTTUMWA        CLOUDY    35  31  85 SW6       29.93R WCI  30
ST LOUIS       CLOUDY    40  34  79 W13       29.99R WCI  32
$$


CITY           SKY/WX    TMP DP  RH WIND       PRES   REMARKS
TERRE HAUTE    CLOUDY    40  37  89 SW8       29.90S WCI  34
EVANSVILLE     CLOUDY    44  40  85 W6        29.96R
INDIANAPOLIS   LGT RAIN  40  39  97 SW10      29.87R WCI  33
LAFAYETTE      CLOUDY    32  32 100 CALM      29.87S FOG
MADISON        FLURRIES  31  28  89 S10       29.86F WCI  22
MILWAUKEE      LGT SNOW  34  31  88 SW8       29.88F FOG     WCI  27
$$






USA.gov is the U.S. government's official web portal to all federal, state and local government web resources and services.